Theta_e
342 343 342 342 341 341 340 340 340 340 340 339 339 338 338 337 337 336 335 334 335 334 334 334 333 331 330 330 329 330 330 331 332 332 331 331 331 329 327 328 327 325 325 327 328 328 328 327 326 326 325 327 328 329 331 330 327 328 328 328 328 329 329 329 329 329 329 329 329 329 328 327 327 328 329 329 328 329 329 328 326 326 328 327 326
342 342 342 341 340 340 340 339 339 340 340 339 339 338 337 337 336 337 335 334 334 334 333 333 332 331 331 330 329 331 331 332 331 330 332 331 327 327 326 327 329 327 327 328 327 326 326 327 326 326 326 326 328 328 329 329 327 327 328 328 329 329 329 330 329 329 329 329 328 328 328 327 327 327 329 329 329 328 327 325 323 324 326 326 325
342 342 341 341 340 339 339 339 339 340 339 339 339 338 337 336 335 336 336 335 334 333 333 333 332 331 332 331 331 332 332 332 331 331 332 330 326 326 326 328 330 329 328 327 326 326 326 327 327 327 327 326 327 328 327 327 327 327 328 329 330 330 331 330 328 328 329 329 329 328 327 327 327 328 328 327 327 326 325 324 323 324 325 324 325
342 341 340 340 339 339 339 339 340 340 339 338 338 338 337 336 335 336 335 335 335 334 333 333 332 331 332 331 331 333 332 332 332 331 332 331 328 326 326 328 330 329 328 328 329 328 327 327 328 328 327 326 327 328 327 327 327 328 329 330 330 330 331 330 328 328 328 328 328 327 327 327 327 327 326 325 325 325 325 325 324 324 324 323 324
341 340 340 340 339 338 338 339 339 339 338 338 338 337 336 335 335 335 334 334 334 334 333 333 332 331 331 331 331 332 330 330 331 328 329 332 331 328 328 329 329 328 328 330 331 330 328 329 329 329 329 327 327 329 329 327 328 329 330 330 330 330 331 331 330 329 328 327 326 326 327 327 327 327 326 326 325 325 325 325 325 325 324 324 323
341 340 339 339 338 338 338 338 339 338 338 338 337 337 336 336 334 334 334 333 332 334 333 333 332 331 331 332 331 330 328 328 329 328 328 332 332 329 329 329 328 328 328 330 330 328 328 329 330 331 331 328 327 329 330 329 329 331 331 330 330 331 331 331 330 329 328 327 326 327 327 325 326 326 326 327 326 325 325 325 325 324 324 323 321
341 339 339 339 338 338 338 338 338 338 337 337 337 337 336 336 334 335 335 332 332 333 333 332 332 332 331 331 330 330 330 329 329 329 330 331 330 328 328 328 328 328 328 328 327 327 328 328 329 331 331 329 328 328 330 330 330 331 331 331 331 331 330 329 328 329 328 327 327 327 327 325 325 326 327 327 326 325 325 325 325 324 323 321 318
340 338 338 339 338 337 338 338 338 337 337 336 336 337 336 335 334 334 333 332 333 334 333 333 333 331 330 330 331 331 331 328 328 329 329 329 328 328 328 327 328 327 327 327 326 327 328 327 328 330 330 330 328 327 329 330 331 331 331 331 331 331 330 327 327 328 328 327 327 326 327 328 327 327 327 326 326 325 324 324 323 321 320 318 316
338 337 338 338 338 337 337 338 338 337 337 336 335 336 336 335 334 333 332 332 333 334 333 333 332 330 329 330 331 331 331 328 327 328 327 328 328 328 328 327 327 327 327 327 327 328 327 327 328 329 329 329 328 328 329 329 331 331 330 330 331 331 328 326 326 328 328 327 327 326 328 328 327 328 327 325 326 325 325 324 321 319 318 316 315
337 337 337 337 337 337 337 338 338 337 336 336 335 335 336 334 333 333 333 332 333 333 333 333 331 329 329 329 328 330 330 327 326 327 327 328 328 328 327 326 326 327 327 327 327 328 328 327 327 327 328 327 327 329 328 327 328 328 328 328 328 328 327 326 326 327 328 328 327 326 328 328 327 328 327 326 326 326 325 323 322 321 319 315 312
337 337 336 337 336 336 336 338 338 337 336 335 335 335 335 332 331 333 333 332 332 332 332 332 329 328 328 327 327 329 329 326 325 326 327 327 328 327 325 324 325 324 325 324 325 326 328 328 327 326 326 326 327 329 327 325 325 325 327 328 327 326 326 327 327 327 329 329 327 326 327 328 326 327 327 327 326 326 325 323 322 321 319 315 310
337 336 336 335 336 336 336 335 334 335 335 335 335 335 334 331 330 332 332 332 331 330 331 330 329 327 327 327 328 328 325 323 323 324 325 327 328 326 323 322 322 321 320 320 321 322 324 326 326 326 325 325 327 329 327 325 325 324 326 327 327 327 326 327 327 327 329 330 329 327 327 327 325 325 325 326 326 326 325 324 323 321 318 315 310
336 336 336 335 335 335 334 332 331 332 334 335 335 334 333 331 330 332 332 331 329 328 329 330 329 327 327 328 328 326 323 322 323 322 323 325 325 324 323 324 323 322 320 319 319 319 320 322 324 326 326 324 325 326 327 327 326 325 325 327 327 327 327 326 327 327 328 329 328 326 326 326 325 324 324 325 326 325 325 324 322 321 318 314 311
336 336 336 335 335 334 334 334 331 332 334 335 334 333 332 330 330 331 331 330 328 327 329 330 329 328 328 328 326 324 322 322 324 323 322 324 324 322 325 326 325 324 323 321 319 318 318 319 321 324 325 325 324 324 327 328 326 325 326 326 326 326 326 326 326 326 326 327 325 323 325 326 324 324 325 326 326 325 325 324 322 321 318 314 312
335 337 336 335 334 334 334 333 331 332 334 334 334 332 331 330 329 329 330 329 327 327 329 330 329 328 327 326 324 323 322 323 325 324 322 324 325 324 325 326 326 326 324 322 319 318 318 318 319 320 321 324 324 324 325 326 325 325 325 325 326 325 325 325 325 324 324 325 325 322 323 325 324 324 325 326 325 325 325 323 322 320 317 314 313
335 336 336 334 334 335 335 331 330 332 334 334 333 331 330 328 327 329 330 329 327 328 328 329 328 327 326 324 322 322 322 324 325 323 319 320 323 325 325 325 326 326 324 321 319 319 319 318 317 318 318 321 324 324 324 325 324 324 324 325 325 324 324 325 324 324 323 324 326 324 323 324 324 324 325 326 325 325 325 323 321 319 317 315 314
335 335 335 334 333 335 334 331 331 333 334 334 333 331 330 328 327 330 331 330 330 329 327 327 328 326 324 322 321 321 322 323 321 318 317 317 320 322 322 322 322 322 321 319 319 319 319 318 317 318 317 318 320 321 323 324 324 323 324 324 324 324 325 325 325 324 324 325 328 327 325 324 324 324 326 326 324 324 324 322 320 318 316 315 314
335 335 335 334 333 334 333 331 332 334 334 334 333 331 331 330 329 331 331 331 331 328 326 326 326 324 322 322 321 321 321 320 317 317 319 319 320 321 321 320 319 317 317 317 318 319 319 318 318 318 318 319 319 320 320 322 322 323 325 325 325 326 327 327 325 325 326 328 329 327 326 326 326 325 326 325 324 323 323 321 319 317 316 315 314
335 335 335 334 333 333 333 332 333 334 334 334 333 332 332 331 331 331 331 331 330 326 325 325 325 323 322 322 321 321 322 319 317 319 320 321 321 321 320 319 317 316 317 317 319 320 319 318 319 318 318 320 321 321 319 318 321 323 324 325 325 325 327 327 324 324 326 327 326 326 327 328 325 324 325 324 323 323 322 320 318 317 315 314 314
335 335 335 334 333 333 333 332 332 333 333 334 333 332 331 331 331 331 331 330 327 323 323 324 324 324 323 321 321 321 321 320 319 319 321 322 322 320 319 318 317 316 316 316 320 322 321 320 319 317 317 318 320 321 319 317 321 323 323 324 323 323 325 325 321 320 322 324 325 327 328 328 325 324 324 322 322 323 322 320 318 316 315 314 314
334 334 334 334 334 333 332 330 330 332 332 332 332 331 331 331 331 331 331 330 326 322 323 323 323 325 324 323 322 322 322 321 319 319 322 323 322 320 319 317 318 316 314 317 321 322 321 321 319 317 317 317 318 318 317 318 322 324 324 324 321 320 323 323 320 320 322 324 326 328 329 328 325 325 324 322 321 321 320 318 318 316 315 315 315
332 333 334 333 333 332 330 328 329 330 330 330 332 331 329 330 331 331 331 329 325 322 323 324 324 325 325 324 323 322 322 322 320 320 322 322 321 320 318 318 318 315 315 320 322 318 318 320 318 317 318 318 319 318 318 321 323 323 322 320 318 319 322 322 321 321 322 322 325 328 328 326 324 325 325 322 320 319 318 317 317 316 315 315 315
328 330 332 332 332 332 329 328 328 329 328 330 331 331 329 330 331 331 330 328 324 323 323 324 324 326 326 325 323 322 322 322 320 320 321 322 322 320 318 319 319 315 315 319 319 315 317 320 319 319 320 321 321 321 321 322 321 320 320 319 319 321 322 321 321 321 319 318 319 322 324 323 323 325 324 322 320 319 317 316 316 316 316 315 315
326 328 329 330 331 331 329 328 328 329 329 329 329 329 330 330 331 331 330 326 323 323 323 324 325 326 325 324 322 322 321 320 320 320 320 321 321 319 319 320 320 318 316 314 314 315 317 319 320 321 321 321 321 322 322 321 321 320 319 319 320 321 321 320 320 319 319 317 316 317 318 319 321 324 324 323 321 319 318 316 316 316 316 316 316
323 324 326 327 328 329 329 328 328 328 329 329 328 327 329 330 330 331 330 325 323 324 324 325 326 325 323 323 324 322 320 319 319 320 320 320 320 319 319 319 318 317 316 313 313 315 318 319 320 320 320 320 320 320 321 321 321 320 319 319 318 319 320 320 319 318 319 319 318 316 315 316 317 320 323 323 320 319 319 318 317 316 316 317 317
319 320 322 323 325 326 328 328 328 329 329 329 328 326 327 329 330 331 329 325 324 325 325 326 325 323 323 324 325 323 319 319 320 320 320 321 321 319 318 318 318 316 315 315 315 316 317 319 319 319 319 319 319 319 320 320 321 321 320 319 318 318 318 318 318 318 318 318 319 318 315 315 315 316 317 319 319 319 320 319 318 317 316 317 317
317 318 319 321 322 324 326 327 328 329 329 329 328 326 327 329 330 330 328 325 324 325 326 326 325 323 323 325 325 322 319 319 320 320 320 321 321 320 318 318 318 316 314 314 315 315 316 318 318 318 318 318 317 318 319 319 319 320 320 320 319 319 318 318 318 318 318 318 318 317 315 315 316 315 315 316 317 318 319 319 319 318 318 317 317
315 316 317 319 321 323 324 325 326 328 328 328 328 327 327 329 330 330 327 324 325 326 326 326 325 323 324 325 324 321 320 320 320 319 320 320 318 318 317 315 316 316 314 315 314 314 316 317 317 317 317 317 316 316 317 317 318 318 318 319 320 320 320 319 319 319 318 317 316 315 315 315 315 315 315 315 316 317 317 318 318 318 317 317 317
314 315 315 316 318 320 323 324 324 325 326 326 327 327 327 328 329 329 327 325 325 326 326 327 325 323 325 325 322 321 321 321 320 320 321 320 317 316 314 313 315 316 315 315 315 314 315 315 315 317 316 315 315 314 314 315 316 317 316 316 317 320 320 320 319 317 314 313 313 313 314 315 314 314 315 314 316 316 316 317 318 317 317 317 317
311 313 313 313 314 317 320 321 321 322 324 325 326 326 326 327 328 329 329 327 326 326 327 326 325 324 325 324 321 320 321 320 320 320 320 319 316 314 312 311 315 317 314 315 316 316 316 316 316 315 313 310 310 310 310 310 312 314 315 315 316 318 319 318 317 317 315 313 314 313 312 312 313 314 314 314 314 314 313 314 317 317 317 317 318
308 310 311 312 312 315 317 318 319 320 321 323 325 325 325 327 328 328 329 328 326 326 326 325 325 325 324 323 321 321 320 320 320 320 319 317 316 315 312 310 312 314 314 313 315 316 316 317 315 313 310 309 310 310 310 310 310 311 313 315 315 317 318 318 318 318 317 316 316 316 313 312 312 312 313 312 312 312 312 312 313 313 313 314 315
307 308 309 310 310 312 315 316 318 319 319 320 322 324 325 326 327 327 327 327 326 326 325 325 325 324 323 321 321 321 320 320 320 319 318 317 317 316 315 310 309 312 313 312 313 314 314 314 314 313 312 312 312 312 312 312 311 312 312 313 315 315 315 317 318 319 319 318 318 319 317 314 313 313 313 313 313 313 312 312 311 311 311 311 312
305 306 307 308 308 309 312 315 317 319 318 319 321 323 324 324 325 325 326 326 325 324 325 325 323 322 322 321 320 321 320 320 320 319 318 318 318 317 315 310 309 311 312 312 313 315 315 314 314 313 313 313 313 314 314 313 313 312 312 313 316 315 315 317 317 317 318 318 319 319 318 315 314 313 313 313 313 313 312 311 311 311 311 311 311
305 305 306 307 307 308 309 312 315 317 315 316 319 321 322 322 322 322 323 324 324 323 323 323 322 321 320 319 319 320 320 319 319 318 318 318 318 316 314 311 309 311 312 313 314 315 317 316 315 314 314 314 314 314 314 314 314 314 313 314 316 315 315 316 315 315 315 316 316 316 317 317 316 314 313 314 313 314 313 312 311 311 311 311 311
304 304 305 306 308 308 308 309 312 314 313 313 315 318 319 319 319 320 321 321 322 322 321 322 321 320 319 319 319 319 319 319 318 318 318 317 316 314 314 311 309 310 312 313 314 315 317 317 316 315 315 314 314 314 314 314 314 314 314 314 314 314 314 314 314 313 313 313 313 313 314 315 316 315 314 314 313 314 314 313 312 312 312 312 311
304 304 305 306 308 309 309 309 310 311 312 312 314 315 317 317 316 318 319 319 320 321 320 320 320 320 319 318 318 318 318 318 318 317 317 316 314 313 313 312 311 311 312 314 314 315 317 318 318 317 317 316 315 314 314 314 314 314 315 315 315 315 315 315 315 314 314 314 314 314 314 314 315 315 315 314 313 314 314 314 314 313 313 314 314
304 304 305 307 307 308 309 309 309 310 310 310 311 313 315 315 314 315 315 316 317 318 318 318 318 318 317 317 316 317 317 317 317 316 316 315 314 313 313 312 313 314 315 316 316 317 317 318 318 318 318 318 317 316 316 316 316 316 316 316 316 317 317 317 317 317 317 317 317 317 317 317 317 318 317 316 316 316 316 316 316 316 316 316 316
304 304 304 305 306 307 308 308 309 309 309 309 310 311 313 313 312 312 312 313 313 313 313 314 314 314 315 315 315 315 315 315 315 316 315 315 314 314 314 314 315 316 316 316 317 318 318 318 319 319 319 319 318 318 318 318 317 318 318 318 318 318 318 318 318 318 318 318 318 319 319 319 319 319 319 318 319 319 318 319 318 319 319 319 319
304 304 304 304 305 306 306 307 308 308 308 308 309 310 311 311 310 311 311 311 311 311 311 312 312 312 313 313 314 314 314 314 315 315 315 315 314 315 314 314 315 315 315 315 315 316 316 317 317 317 318 319 319 318 318 318 318 318 318 318 318 317 318 318 318 317 317 317 317 317 317 317 317 317 317 317 317 317 317 317 318 318 319 318 319
303 304 304 304 305 305 305 306 306 306 307 307 308 309 310 309 309 309 309 309 309 309 310 311 311 311 312 312 313 313 313 314 314 313 313 312 313 314 314 314 315 315 315 315 314 315 315 315 315 314 315 316 317 317 316 315 315 315 315 314 313 313 313 313 313 312 311 310 310 310 310 311 310 310 310 310 310 311 311 311 313 314 314 315 316
303 303 303 302 302 302 303 303 303 304 304 305 306 307 306 306 306 305 305 305 305 306 307 308 308 308 308 309 310 310 311 312 312 312 310 309 308 309 309 310 312 313 312 311 311 312 313 313 313 313 313 314 315 315 312 310 310 310 309 308 307 307 307 306 306 305 305 304 303 303 304 306 306 305 305 305 305 305 305 305 306 307 309 311 313
301 301 300 300 300 300 300 300 300 301 301 302 303 303 302 301 301 300 299 299 300 301 302 302 303 303 303 303 303 303 304 305 307 308 307 305 305 304 304 304 305 305 305 305 305 306 307 307 308 310 311 311 312 311 309 308 308 308 307 306 306 306 305 304 303 303 302 302 302 302 302 304 305 304 303 303 303 302 302 302 302 302 303 305 308
299 299 299 299 299 299 299 299 299 299 299 299 300 300 299 299 298 297 297 297 297 297 298 298 299 299 299 299 299 299 299 299 300 301 301 300 300 301 301 300 301 300 300 300 300 300 301 301 302 303 304 305 306 305 304 303 303 303 303 303 303 303 302 302 301 302 301 300 300 300 301 302 302 302 301 301 300 300 300 300 300 300 300 300 301
299 299 299 299 299 299 299 299 299 299 298 298 298 298 298 297 297 296 296 296 296 296 297 297 297 297 297 297 297 298 298 298 298 298 298 298 298 298 298 298 299 298 299 299 298 299 299 299 299 299 299 300 300 299 299 299 299 299 299 299 300 300 299 299 299 299 299 299 299 299 299 299 299 299 299 299 299 299 299 299 299 299 299 299 299
299 299 299 299 299 299 299 299 299 299 298 297 297 297 297 296 296 295 296 296 296 296 296 296 296 297 297 297 297 297 297 297 297 297 297 298 298 298 298 298 298 298 298 298 298 298 298 298 298 298 298 298 298 298 298 298 298 298 298 298 298 298 298 298 298 298 298 298 298 298 298 298 298 298 298 298 298 299 298 299 299 299 299 299 299
299 299 299 299 299 299 299 299 299 299 299 298 297 297 296 296 296 296 296 296 296 296 296 296 296 296 296 296 296 296 296 297 297 297 297 297 297 297 297 298 298 298 298 298 298 298 298 298 298 298 298 298 298 297 298 298 298 298 298 298 298 298 298 298 298 298 298 298 298 298 298 298 298 298 298 298 298 298 298 299 298 298 298 298 298
300 300 300 300 300 299 299 299 299 299 299 298 298 297 297 296 296 297 297 296 296 296 296 296 296 296 296 296 296 296 296 296 296 296 297 297 297 297 297 297 297 297 297 297 297 297 297 297 298 298 298 297 298 299 298 297 297 297 297 297 297 297 297 297 297 298 298 297 297 297 297 297 297 297 297 298 298 298 298 298 299 299 300 301 300
299 299 300 300 300 300 299 299 299 299 299 299 299 299 298 297 297 297 297 296 296 296 296 296 296 296 295 295 296 296 296 296 296 296 296 297 297 297 297 297 297 297 297 297 297 297 297 297 297 297 297 297 298 299 298 297 296 296 296 296 296 296 296 296 297 297 297 297 297 297 297 297 297 297 298 298 299 299 299 298 298 300 302 303 303
297 298 299 299 299 299 299 299 299 299 299 299 299 299 299 298 298 298 297 296 296 296 296 296 296 296 296 295 295 296 296 296 296 296 296 296 296 296 296 297 297 297 296 296 296 296 296 296 296 296 296 296 297 298 298 297 297 297 297 297 297 297 297 297 297 297 297 297 297 297 297 297 298 298 299 300 301 301 300 300 300 300 301 302 303
296 297 298 298 298 299 299 298 298 298 298 298 298 298 299 298 298 298 298 297 297 297 298 297 297 296 296 296 296 296 296 296 296 297 298 297 296 296 296 296 296 296 296 296 296 296 296 296 296 296 297 297 297 298 298 298 298 298 298 297 297 297 297 297 297 297 297 297 297 297 297 298 299 300 300 301 301 301 301 301 301 301 301 301 302
297 298 298 298 298 298 298 297 296 296 297 297 298 298 298 298 298 298 297 297 298 298 299 298 297 296 295 296 297 296 296 296 297 297 298 298 298 297 296 296 295 296 296 296 296 296 297 297 297 297 297 297 298 298 297 297 298 298 298 297 297 297 298 297 298 298 298 297 297 297 298 299 300 300 300 300 300 300 300 300 300 300 301 301 301
Wind_Speed
17 19 20 16 16 17 14 14 15 14 13 14 15 15 15 15 14 15 17 18 17 15 17 19 17 16 16 16 16 14 15 14 12 12 12 11 10 10 10 11 12 13 12 12 10 10 11 10 11 11 10 9 9 9 9 10 12 12 12 12 13 13 12 14 15 15 15 15 14 13 12 12 12 12 9 8 8 8 8 7 6 6 5 4 4
16 17 18 16 16 17 15 15 15 14 13 14 15 15 15 14 13 13 14 16 15 13 17 20 18 16 15 16 15 13 14 13 13 14 12 11 12 11 10 10 11 12 10 10 10 10 11 10 11 11 10 10 10 11 10 11 12 12 12 13 13 13 13 15 16 16 16 16 15 15 14 13 12 11 9 8 8 8 7 6 5 6 6 6 6
17 16 17 17 17 19 19 18 17 15 14 14 15 14 15 14 12 12 13 14 13 14 17 18 17 15 14 15 14 12 12 12 12 13 12 12 13 10 9 9 9 10 10 10 10 10 11 11 11 11 11 11 10 11 11 12 12 12 12 12 13 13 13 15 16 16 17 17 16 14 14 15 13 10 9 9 8 8 7 6 5 6 7 6 5
20 18 17 18 19 21 21 20 18 16 14 15 15 14 15 15 14 13 13 14 14 15 17 17 16 15 14 15 14 12 12 13 12 12 12 11 11 11 10 10 10 10 11 10 9 10 11 12 12 12 12 12 11 11 11 12 12 12 12 12 14 15 15 16 17 17 17 17 16 14 13 14 11 10 11 9 8 8 7 7 7 7 7 6 5
22 20 19 19 20 22 22 21 19 17 15 15 15 14 14 14 15 14 14 15 16 15 16 18 17 17 16 15 15 14 14 16 15 14 13 10 10 11 10 10 11 11 11 9 8 10 11 12 12 12 12 12 12 11 10 12 12 11 12 13 14 14 14 15 16 17 17 16 16 14 12 11 10 13 13 10 8 8 8 8 8 8 7 7 7
21 20 20 21 21 21 22 23 21 18 15 15 15 13 12 13 14 15 14 16 17 15 16 19 18 18 17 15 17 17 16 17 16 15 14 11 10 10 10 10 10 10 9 9 9 10 11 11 11 11 11 12 13 11 11 11 11 11 11 12 12 13 15 15 16 17 19 17 16 15 11 10 14 17 15 11 9 9 9 8 8 8 8 8 7
20 19 19 21 22 22 23 25 24 19 16 16 15 13 13 14 14 16 16 17 17 15 15 19 18 17 17 16 16 16 15 15 15 13 13 11 10 10 9 9 9 8 8 8 8 9 10 10 11 11 11 12 13 13 12 11 11 11 11 11 12 12 13 15 16 17 20 19 17 16 11 10 16 17 14 15 13 11 10 8 8 9 8 9 8
19 19 19 19 22 24 24 25 23 19 16 16 16 14 14 14 13 16 19 18 17 15 17 19 17 17 19 17 16 15 14 14 13 13 13 12 10 9 8 7 7 7 7 7 8 8 9 9 10 11 11 12 13 13 12 12 11 11 13 13 12 11 11 14 16 17 20 19 17 15 9 9 15 13 10 13 14 14 12 9 8 8 8 10 10
18 18 20 20 21 24 25 25 23 19 16 17 17 15 15 14 13 15 18 19 17 16 18 19 18 18 19 18 16 14 13 13 12 12 11 11 9 9 8 7 7 7 7 7 7 7 8 9 10 11 12 12 12 12 12 13 13 12 15 15 13 13 12 12 15 17 18 17 17 15 8 9 13 10 8 10 11 13 13 11 11 10 9 9 10
17 17 19 20 21 23 24 23 22 18 16 16 16 15 15 16 15 15 16 18 19 19 20 20 20 20 20 19 17 14 13 12 11 10 10 10 10 9 8 7 7 7 7 7 7 6 7 8 10 11 12 12 11 11 13 15 15 14 15 16 15 14 14 12 14 16 16 15 16 13 9 10 13 11 9 9 9 10 12 14 13 11 9 8 9
16 16 17 17 19 22 22 20 19 15 14 15 14 14 14 16 17 16 16 19 21 22 22 21 20 20 21 20 17 15 14 13 12 12 11 11 11 11 10 8 7 7 7 6 7 7 7 8 9 10 11 12 11 12 13 14 15 15 15 16 16 16 15 14 15 17 15 12 12 11 10 12 14 14 12 10 10 10 11 14 13 11 10 8 9
15 15 15 15 16 17 18 19 17 12 12 14 13 13 14 17 19 18 19 22 24 24 23 21 20 21 21 19 16 15 14 14 14 13 13 12 10 11 11 10 9 8 8 7 7 7 7 7 8 9 10 11 12 12 13 14 15 15 15 16 17 16 15 15 16 16 14 10 10 11 11 12 13 14 13 11 10 10 11 14 14 12 10 9 8
14 13 13 13 14 16 17 19 17 13 13 14 12 13 15 19 21 22 23 25 25 25 23 20 20 20 20 18 17 16 15 14 14 13 12 11 10 10 11 10 10 9 9 9 9 8 8 8 8 8 9 10 12 12 12 13 14 15 16 16 17 17 16 15 15 15 14 11 11 12 12 12 11 11 10 9 10 10 11 12 13 11 10 10 9
13 13 13 15 18 20 19 20 22 20 17 14 14 15 18 21 24 24 25 26 25 25 22 20 20 19 19 18 17 16 15 14 14 13 12 12 11 10 10 9 9 9 9 9 9 10 9 9 9 9 9 9 11 12 12 12 13 14 15 16 16 16 15 14 14 14 13 12 12 12 13 13 13 11 9 8 9 10 10 12 13 11 10 10 9
12 13 14 18 22 22 20 22 28 27 21 17 16 19 22 24 26 26 27 27 26 25 23 20 19 19 18 18 17 15 15 15 13 13 13 12 11 10 9 9 8 8 8 8 8 9 10 10 10 10 9 9 10 11 11 11 12 12 14 15 15 14 14 13 13 13 12 11 11 11 12 13 14 12 9 8 9 9 10 12 13 12 11 10 9
13 14 15 19 23 21 20 24 28 26 23 19 17 22 26 27 28 27 25 26 26 25 23 20 19 19 19 18 16 15 15 15 14 14 14 13 12 10 10 9 8 8 8 7 7 8 8 9 10 10 10 10 10 10 10 10 11 12 12 13 13 13 13 12 12 12 12 11 10 10 11 12 14 13 10 9 11 11 10 11 12 11 11 11 10
13 14 15 17 21 21 19 24 26 22 22 21 21 25 26 27 28 25 22 23 23 22 22 21 19 20 20 19 17 16 16 15 16 16 15 14 12 11 10 9 8 7 6 7 7 7 7 8 9 10 11 11 11 11 10 9 9 10 11 12 12 12 11 11 11 11 11 10 9 10 10 10 12 13 10 10 13 13 12 12 11 9 9 11 11
11 12 13 14 18 18 17 21 22 19 20 21 21 23 22 23 25 23 21 21 20 21 23 22 21 22 21 19 18 17 16 16 17 17 15 13 11 10 9 7 6 5 5 6 7 7 8 9 10 10 10 11 11 12 11 10 9 10 11 11 11 11 11 10 9 8 8 8 9 10 9 9 11 12 12 12 13 13 13 12 10 7 7 9 10
8 10 12 12 15 15 16 20 20 17 18 18 18 18 18 19 21 22 22 22 21 23 24 23 23 23 21 20 19 18 17 16 16 16 14 12 10 9 8 7 5 4 5 6 7 7 8 9 10 11 11 11 11 12 11 10 10 10 11 11 10 11 10 9 9 8 8 9 9 10 10 11 14 15 14 14 13 12 12 11 9 7 7 8 9
5 8 10 12 15 17 18 21 21 18 16 16 16 17 17 18 20 21 22 22 23 25 25 24 25 23 22 21 20 18 17 17 16 16 14 12 11 10 8 7 5 4 5 6 6 5 5 7 9 9 10 10 11 11 11 10 10 10 11 11 11 11 10 10 10 9 9 9 9 11 11 12 15 16 16 16 14 13 12 11 9 8 8 9 9
2 4 9 15 17 17 17 20 22 19 16 16 17 17 18 18 20 22 22 22 24 27 26 26 25 23 22 21 20 18 17 16 16 16 15 14 13 11 9 8 6 5 6 6 6 5 5 6 7 8 8 9 11 11 11 11 10 9 10 11 11 11 10 10 10 10 10 10 9 10 11 13 15 15 15 16 15 14 13 12 11 10 9 9 9
1 3 11 18 18 16 14 17 20 19 16 16 17 18 19 19 20 23 23 23 26 28 27 25 24 22 20 20 19 18 17 16 16 16 16 15 13 12 10 8 7 6 6 6 5 6 6 6 8 8 8 9 10 11 11 10 10 10 10 11 12 11 9 9 10 10 10 11 11 10 11 13 15 14 15 15 14 13 13 11 11 11 10 10 9
1 1 7 12 13 12 12 16 21 23 21 20 21 21 20 20 21 21 22 24 27 28 27 24 22 20 19 19 19 18 17 16 15 16 17 16 14 12 10 9 7 6 6 7 6 5 6 8 9 9 9 9 9 10 10 9 9 11 11 12 13 11 10 11 11 10 9 10 11 11 11 12 14 15 15 15 14 13 11 11 11 10 10 9 8
3 3 5 7 8 8 10 16 22 25 26 26 26 26 22 20 21 20 22 26 28 28 27 23 21 21 20 20 19 19 18 16 15 16 16 16 14 12 11 9 8 6 6 7 6 6 7 8 9 8 8 8 8 9 11 10 10 10 10 12 13 12 11 10 10 9 9 8 9 10 10 11 13 15 15 15 14 13 12 11 11 10 9 9 9
4 1 3 6 8 8 9 14 20 24 26 26 28 31 27 21 20 20 23 27 27 28 27 24 22 22 21 21 19 18 17 17 17 17 16 15 14 13 11 9 7 7 7 6 6 7 7 8 8 7 7 7 6 7 9 10 11 12 11 10 11 11 10 9 9 9 9 8 8 9 10 10 11 13 15 15 16 15 13 11 11 10 9 9 9
7 5 2 2 4 8 9 10 16 22 25 25 27 33 31 24 21 21 23 27 27 28 27 25 24 23 21 20 19 17 17 18 17 16 15 14 14 13 11 9 8 8 7 6 6 7 8 8 8 8 7 7 7 7 7 8 9 11 12 12 11 11 10 9 10 9 9 9 8 9 10 10 10 11 12 14 16 16 14 12 11 10 9 9 9
8 7 4 3 2 6 8 8 11 18 22 21 23 30 30 25 22 22 25 28 28 28 27 25 24 22 21 21 19 17 18 19 17 16 16 15 14 13 10 9 9 8 7 7 7 7 8 8 8 8 8 7 7 7 7 8 8 9 11 13 14 13 11 11 11 10 10 11 9 10 12 12 11 11 11 12 15 15 15 13 11 10 9 8 8
8 8 6 5 3 3 8 9 9 14 18 18 21 27 29 25 23 25 27 28 28 27 26 25 24 23 23 23 20 18 19 19 18 18 18 17 16 14 11 10 10 9 8 7 7 8 8 9 9 8 7 7 7 6 7 8 7 7 9 11 13 13 11 12 12 11 12 12 11 11 12 12 12 12 12 13 14 14 13 12 10 10 9 9 8
9 8 8 7 5 1 6 10 10 12 17 20 22 26 28 26 26 29 30 28 27 27 25 24 24 24 24 23 20 19 20 20 19 20 20 19 17 14 12 11 10 10 10 9 8 8 8 8 8 8 7 9 10 10 10 11 9 7 7 9 12 12 10 10 10 10 11 11 11 12 13 13 13 12 13 13 13 13 12 10 9 9 10 9 9
10 8 8 7 6 4 4 8 10 12 17 23 26 26 27 28 28 30 30 27 26 26 24 24 24 23 23 23 22 21 21 21 20 21 21 19 16 13 12 12 12 11 11 11 9 8 7 7 7 8 10 11 11 10 10 11 12 10 8 8 9 10 9 8 8 8 9 9 10 11 14 16 15 14 14 14 13 13 13 11 10 10 10 9 9
10 9 8 8 8 6 5 8 11 13 17 22 25 24 24 27 28 28 28 27 25 24 24 24 25 23 23 24 24 23 22 22 22 22 20 16 13 11 11 13 14 13 13 12 10 8 8 7 7 8 10 10 10 9 9 9 10 10 10 9 8 9 9 8 7 7 7 7 8 8 11 14 14 14 14 14 14 14 13 12 12 11 11 11 10
11 10 9 8 10 9 7 9 11 12 14 19 21 21 23 26 26 25 25 24 23 23 23 23 24 24 25 25 24 23 23 23 23 21 18 15 14 13 13 15 16 15 14 13 12 10 10 9 8 8 8 8 8 8 8 8 8 8 8 7 7 8 9 8 7 7 6 7 7 7 9 11 12 12 12 13 13 13 13 13 12 12 12 12 12
12 12 11 10 11 11 10 9 8 8 11 16 19 20 22 24 25 24 24 23 21 22 24 24 24 24 24 23 20 21 23 25 24 21 18 16 16 17 17 17 17 17 16 14 13 11 10 10 10 9 8 8 8 8 7 8 8 8 8 7 5 6 7 7 8 8 8 8 8 7 8 10 12 13 12 12 12 13 14 15 15 14 15 14 15
13 13 13 12 12 13 14 12 9 8 10 14 18 20 22 22 22 23 23 23 23 23 24 24 24 23 20 17 18 20 21 22 22 20 17 17 18 19 19 18 18 18 17 16 14 12 10 10 10 9 9 9 9 8 8 7 7 7 7 6 6 6 7 7 8 9 10 10 10 9 8 8 10 12 12 13 13 13 15 17 18 18 18 18 19
13 14 15 16 15 14 16 17 13 11 13 15 16 17 19 20 20 21 22 23 24 23 23 23 23 22 19 18 20 21 20 20 20 18 16 17 18 19 19 18 18 18 17 16 15 13 11 10 11 11 10 10 10 9 8 8 7 6 6 6 6 7 8 9 10 10 11 11 12 12 11 10 11 13 14 15 15 15 16 18 19 20 20 21 22
14 17 20 21 21 19 18 19 18 16 18 19 18 16 15 16 18 19 20 21 22 23 22 21 20 20 20 20 20 20 20 21 20 18 17 17 17 17 18 17 16 16 16 16 15 13 12 11 11 11 11 11 11 10 10 9 8 8 7 7 8 8 9 10 11 11 11 12 13 13 13 13 14 16 18 18 17 18 18 19 20 21 22 23 23
15 19 23 24 24 24 23 23 22 21 21 22 22 21 19 18 19 20 21 21 21 22 22 22 20 19 19 19 18 18 20 20 19 18 18 17 17 16 16 15 14 14 14 15 14 13 12 12 11 12 12 12 11 11 11 10 10 10 10 10 10 11 11 12 13 13 13 15 16 15 15 16 17 19 20 20 19 20 20 21 22 24 24 24 24
14 18 22 23 23 23 23 23 23 23 23 23 24 24 23 23 24 24 23 24 24 23 22 22 22 22 21 19 18 18 18 18 17 17 17 16 16 16 15 15 14 13 13 13 13 13 13 13 13 13 13 12 12 11 11 11 11 11 11 12 12 13 14 14 15 16 16 18 19 19 19 20 21 23 23 23 23 24 23 24 25 24 25 25 24
12 15 19 21 21 21 20 21 21 22 21 21 22 23 24 25 25 25 24 25 25 24 22 20 20 20 20 19 18 17 16 14 13 13 14 14 15 14 13 13 12 12 11 12 12 13 13 14 15 15 14 15 14 13 12 11 11 11 12 12 13 14 15 15 16 17 17 18 21 22 21 21 22 23 23 24 24 24 24 25 25 25 26 26 24
13 16 19 20 19 19 19 19 20 19 18 18 19 20 22 23 23 22 23 23 22 21 20 19 17 16 16 16 16 15 14 13 12 10 10 11 11 10 9 10 11 12 11 11 11 11 12 14 13 12 12 14 15 14 12 11 11 11 11 13 14 15 16 17 17 18 18 19 21 22 23 23 22 22 24 24 25 25 26 26 26 26 27 26 26
18 19 21 21 20 20 20 19 18 17 15 14 15 17 19 20 19 19 20 20 18 17 17 16 16 15 13 13 12 11 11 11 10 8 7 9 8 7 7 8 11 12 11 10 9 10 12 13 13 12 12 13 14 14 12 11 12 13 14 16 17 19 19 20 20 20 20 21 21 21 24 27 26 25 26 26 27 28 29 29 29 29 29 28 29
19 19 20 22 22 22 21 19 18 16 15 13 13 15 18 18 17 18 19 17 16 15 14 14 14 13 12 12 11 10 9 8 7 6 5 6 7 6 5 6 8 8 8 7 7 8 9 10 11 12 14 14 15 16 15 15 16 17 18 19 20 22 22 22 22 23 23 24 24 25 28 30 30 29 29 29 30 30 31 32 31 31 31 31 31
18 18 19 20 21 21 20 19 17 16 16 14 13 15 17 17 17 18 18 16 16 15 14 13 13 13 12 12 11 10 9 8 8 7 6 6 6 6 5 5 5 5 5 5 6 7 8 8 9 10 12 14 15 16 17 17 18 19 20 20 21 23 23 23 24 25 25 26 27 28 30 31 32 32 32 32 32 31 32 32 32 31 31 31 32
16 16 16 16 17 18 18 18 17 16 16 15 14 15 16 17 18 17 16 15 15 14 14 14 13 13 13 12 10 9 8 7 7 6 5 4 4 4 4 4 4 4 5 6 6 7 7 7 8 9 11 12 13 15 16 16 17 19 20 20 21 23 23 24 24 24 25 26 27 28 29 30 31 32 33 33 33 32 32 32 31 31 32 32 32
13 14 13 14 14 14 15 17 17 16 16 16 15 15 16 17 17 16 15 14 14 13 13 13 12 12 12 11 10 9 8 7 6 5 4 2 2 2 2 3 4 5 5 6 7 7 8 8 9 10 11 11 11 12 14 14 15 16 17 18 19 20 21 22 22 23 23 24 26 27 28 28 30 31 32 33 33 33 34 33 32 31 31 32 33
11 12 12 12 12 13 14 16 16 15 15 15 15 15 15 16 15 14 13 13 13 13 13 13 13 12 12 11 10 9 8 7 6 4 3 2 1 0 1 2 3 5 5 6 6 7 7 8 8 9 9 10 10 10 11 12 12 13 14 15 16 17 19 20 20 20 23 24 25 26 26 27 29 29 30 31 31 32 33 34 33 33 33 33 33
9 9 9 8 9 10 11 12 13 12 12 13 13 13 13 13 13 12 11 11 11 12 12 12 12 11 11 10 9 8 8 7 7 5 4 4 2 2 1 1 2 3 3 4 5 5 5 5 6 6 6 6 6 7 8 10 11 12 12 13 14 15 17 17 16 18 21 24 25 26 26 26 27 28 28 29 29 30 30 29 29 28 28 28 27
9 8 7 7 7 8 8 9 10 10 9 10 10 10 10 10 10 10 9 9 9 10 10 11 11 10 9 9 8 7 7 6 5 4 3 3 2 2 1 1 1 2 2 3 2 3 4 4 4 4 4 3 3 4 7 9 10 11 12 12 13 14 15 16 17 19 22 24 24 24 24 24 25 25 24 24 23 23 24 25 24 22 20 21 22
9 7 7 7 7 7 7 7 8 7 7 7 7 7 8 8 8 8 7 7 8 9 9 9 10 9 9 9 8 8 7 6 5 4 3 2 1 0 0 1 2 2 3 3 3 3 3 4 3 3 3 2 2 4 7 9 10 11 12 12 12 13 14 15 16 18 20 21 21 21 21 20 20 19 18 16 16 16 17 18 19 18 17 18 20
7 6 5 5 5 6 6 6 6 6 6 6 5 5 5 6 6 6 6 7 8 8 8 9 9 9 9 8 8 8 7 6 5 4 4 3 2 1 1 1 2 3 2 2 2 2 2 2 2 1 2 2 2 4 5 7 8 9 10 10 11 12 13 14 15 16 17 18 18 18 18 17 16 15 13 13 13 14 14 15 15 16 16 17 17
4 4 3 3 4 4 4 4 5 6 6 5 4 2 2 4 5 5 5 6 6 7 7 7 7 7 7 7 6 7 7 6 5 4 3 2 2 5 6 5 3 3 3 3 3 3 3 3 3 3 3 3 4 5 6 7 7 7 7 8 9 11 12 13 15 15 15 15 16 16 15 14 13 13 13 13 13 14 14 15 15 16 16 16 17
Wind_Direction
209 220 227 217 209 207 200 202 206 207 203 198 201 203 201 200 199 206 210 203 205 216 207 194 195 201 202 205 205 192 183 179 182 189 181 174 175 184 193 188 189 197 201 203 197 193 200 201 200 198 194 191 186 188 191 195 199 198 200 202 200 196 179 165 172 172 162 157 151 140 141 148 146 142 141 148 150 144 141 143 152 147 135 134 125
209 217 219 210 205 205 204 207 209 205 197 197 197 197 198 194 189 196 207 205 200 207 208 197 192 194 198 204 198 181 176 177 185 187 180 181 184 190 203 200 198 201 199 198 198 200 204 204 204 203 199 198 195 191 192 196 198 198 199 197 192 190 182 172 173 171 163 158 148 135 133 135 135 137 138 139 142 142 144 149 154 143 130 129 119
204 207 207 207 208 210 215 218 216 207 197 199 198 192 192 187 187 195 199 202 197 196 199 196 192 190 194 199 185 173 177 175 181 188 183 191 199 203 211 209 204 204 205 207 209 212 212 211 209 204 201 202 202 199 199 199 198 197 194 190 184 180 180 179 179 177 168 156 147 142 141 135 129 133 134 137 142 138 139 141 138 133 129 130 125
199 205 207 207 209 212 218 221 218 206 195 199 198 192 191 185 186 192 191 195 201 200 192 188 192 192 194 195 180 168 178 176 177 186 186 194 206 209 211 211 207 208 212 213 214 219 219 216 211 203 203 205 202 200 202 200 198 195 190 187 185 180 177 180 182 182 176 165 155 150 146 140 139 145 137 132 139 136 135 138 134 132 134 137 129
196 203 210 209 209 210 212 218 217 205 195 197 198 196 193 187 186 188 191 199 206 204 190 183 189 192 191 190 180 175 183 185 187 193 192 192 202 206 207 209 212 213 214 208 207 216 218 214 208 203 204 206 200 196 198 200 197 192 190 190 189 183 178 180 183 181 180 175 162 155 155 153 153 152 137 124 133 135 134 139 139 138 140 137 125
196 200 210 211 208 204 206 213 214 205 197 195 198 197 191 191 192 190 199 207 206 202 189 181 184 187 184 183 181 180 185 189 192 197 194 190 199 204 206 209 213 216 214 209 210 214 212 207 200 195 201 204 199 193 193 196 193 191 194 193 191 189 184 185 186 182 180 176 169 168 170 169 166 159 147 136 134 133 134 137 138 134 130 124 118
195 193 203 209 207 202 203 210 212 205 196 194 198 193 188 197 196 196 204 203 201 202 188 179 181 180 177 177 180 182 185 187 191 197 197 200 206 206 208 211 212 215 213 213 220 215 209 204 195 190 196 201 199 195 193 192 190 192 196 194 195 198 194 191 191 188 186 183 179 178 171 171 173 166 158 151 144 140 142 142 138 130 127 126 121
192 191 198 206 208 206 205 207 208 201 192 192 196 191 190 201 198 197 201 195 197 201 184 177 180 178 176 176 179 182 186 190 193 199 200 203 206 202 203 209 206 205 203 205 212 209 206 205 200 196 195 197 200 201 197 191 188 193 196 192 193 200 197 194 194 194 194 187 180 179 170 172 176 172 169 161 151 148 144 141 142 135 135 144 140
196 195 197 203 210 209 207 207 206 198 189 191 195 190 188 197 197 193 192 190 197 199 181 176 179 180 179 177 179 183 185 190 192 193 191 188 189 188 189 195 193 187 187 190 194 199 204 203 201 197 196 198 201 201 199 193 188 193 198 193 191 195 194 195 198 197 197 190 183 180 173 172 176 176 178 166 153 151 147 144 145 139 135 147 151
198 198 199 204 209 209 209 210 208 199 188 190 194 188 187 196 196 188 184 186 194 194 181 176 178 181 181 180 183 184 181 185 186 181 179 176 178 180 179 182 183 179 180 180 180 188 198 200 199 196 197 202 201 198 198 196 194 195 198 198 197 195 191 195 202 201 201 200 192 180 168 174 178 179 179 170 159 154 152 151 150 146 141 147 155
191 194 200 204 208 214 215 207 198 194 188 189 190 184 188 200 194 180 179 182 183 182 177 176 179 181 182 182 185 185 183 183 178 174 176 176 179 176 171 174 177 179 182 182 183 183 186 193 196 196 200 201 195 193 195 197 200 200 197 200 203 198 192 195 201 204 207 212 207 190 177 182 184 182 178 171 164 155 151 153 152 151 145 146 160
184 190 198 204 206 206 203 191 182 189 195 191 188 184 189 196 187 175 176 178 177 175 172 175 182 182 182 184 186 186 187 184 179 179 179 175 177 172 167 172 180 184 186 190 193 187 185 189 190 194 198 195 191 194 197 199 201 203 201 203 205 204 201 200 201 205 208 214 219 209 198 195 191 189 184 173 163 156 154 155 153 150 143 139 154
178 184 188 192 187 176 180 188 188 198 208 200 190 187 189 189 182 176 176 176 176 174 171 175 181 180 180 183 186 186 185 183 184 184 177 173 177 174 170 174 180 184 186 187 191 189 187 189 189 192 194 194 196 196 197 200 201 203 204 203 205 206 207 208 206 209 212 213 215 215 213 207 196 192 191 176 158 153 156 158 154 150 144 140 146
174 180 181 180 180 180 190 198 193 195 204 199 192 189 188 186 181 178 177 177 178 175 172 176 179 178 179 181 183 182 180 180 182 182 177 176 179 175 169 171 174 176 179 184 186 186 187 188 190 193 195 196 198 196 193 196 201 203 203 203 204 205 206 209 208 210 216 215 210 212 216 214 197 182 177 170 160 158 162 161 154 147 145 145 146
175 177 180 183 187 195 207 201 190 191 195 191 191 191 188 185 181 179 179 179 180 177 175 178 178 177 179 178 179 181 179 179 180 182 181 176 171 166 162 162 163 167 178 186 186 184 186 188 190 192 196 197 195 196 195 195 200 202 202 201 201 202 204 208 208 209 213 211 207 205 208 208 196 177 165 168 169 167 166 163 154 147 148 149 149
180 172 173 184 191 200 212 203 189 188 189 187 190 189 187 185 183 180 179 179 180 178 177 178 176 176 176 176 178 179 177 177 181 184 180 172 164 159 160 161 163 171 184 191 190 188 188 188 188 189 194 195 193 195 198 201 203 200 198 196 198 201 202 204 206 206 205 201 200 196 191 190 185 172 165 175 175 169 166 163 156 152 153 154 155
182 175 176 185 192 200 211 202 190 186 187 187 191 190 187 185 183 180 177 177 180 179 177 176 175 176 174 174 175 175 176 180 183 180 173 170 164 159 163 166 169 182 192 194 194 195 193 186 185 189 194 196 194 194 197 203 206 203 197 192 195 198 197 201 204 201 197 194 197 196 182 177 180 169 164 178 176 168 165 162 157 158 160 159 160
181 179 180 186 192 199 206 200 191 189 190 189 189 188 185 183 181 178 176 176 179 179 176 176 177 177 174 173 173 173 175 180 180 174 168 167 162 157 160 163 168 185 191 192 193 194 196 189 184 189 196 198 199 198 199 202 205 208 201 191 194 197 196 204 203 192 188 187 196 195 177 173 180 169 166 174 169 160 161 162 160 161 167 166 164
187 184 181 187 192 192 196 195 190 191 195 192 188 184 183 183 179 176 177 177 179 177 176 178 179 176 175 175 174 172 173 174 175 173 168 164 161 156 156 157 163 175 178 182 185 187 192 192 190 194 198 200 202 199 200 202 200 206 206 199 200 198 197 204 200 190 189 188 194 191 177 179 179 170 169 167 159 157 159 159 158 155 157 163 164
198 198 187 187 191 194 200 198 189 189 193 192 192 188 185 185 181 178 179 179 179 178 177 180 179 177 177 176 175 174 173 173 174 172 168 165 164 160 158 161 160 159 171 176 177 179 186 192 193 197 201 204 206 202 202 203 197 197 202 203 201 195 194 199 196 192 190 187 190 185 178 181 178 172 170 164 159 161 160 157 158 152 146 154 162
231 217 194 190 193 198 202 197 189 188 190 191 197 196 190 188 185 183 182 179 179 179 179 181 180 179 181 180 180 178 175 176 175 171 170 168 166 165 165 166 160 162 172 172 176 183 184 187 187 190 198 202 205 206 204 201 194 191 193 195 194 190 191 194 188 185 182 174 176 177 176 179 177 174 170 166 165 164 159 159 160 155 150 154 162
285 217 193 190 193 196 198 196 191 189 190 194 199 199 195 193 189 187 184 180 179 182 183 183 181 181 183 186 186 182 178 179 177 173 172 170 167 168 169 168 168 173 169 164 182 193 181 178 182 184 190 191 194 200 200 194 187 185 186 184 182 179 179 180 173 170 167 161 162 169 174 175 175 175 172 168 168 166 162 163 164 163 162 162 168
74 170 184 191 199 206 207 203 199 197 197 196 197 199 198 195 192 190 185 182 183 184 184 182 182 184 186 187 187 183 180 181 179 176 174 170 169 170 169 167 173 179 168 167 183 185 173 175 180 180 179 178 180 182 179 172 166 168 170 167 164 163 165 163 157 154 154 150 150 158 166 169 170 173 173 172 172 170 168 170 171 172 174 174 180
80 128 169 192 203 206 204 204 206 207 203 198 195 198 199 196 195 192 188 187 186 185 184 182 183 186 186 185 183 181 180 180 179 177 174 171 169 168 168 168 172 178 174 176 176 169 170 177 177 173 167 165 169 167 162 157 155 155 157 159 158 155 156 154 150 153 153 145 140 141 147 159 168 172 174 176 177 174 172 175 177 178 182 186 192
28 59 191 202 199 196 202 212 216 214 210 205 198 196 198 200 198 193 191 191 188 184 183 183 185 186 185 184 181 180 180 178 176 175 173 172 170 168 171 170 171 175 174 173 169 164 169 172 169 170 169 168 169 166 165 167 165 159 155 157 157 154 152 153 155 157 154 151 151 147 142 146 160 173 181 184 182 178 178 180 183 184 187 194 204
10 4 322 259 216 206 207 217 222 220 216 212 202 195 195 199 199 195 194 193 188 185 184 184 186 186 184 182 182 183 181 175 171 170 171 172 171 171 170 166 166 171 169 164 164 165 169 171 170 170 175 179 174 167 168 172 170 166 164 165 164 161 159 159 160 160 159 159 159 162 160 154 156 168 181 188 188 187 187 186 189 193 195 202 214
10 7 357 353 319 224 219 221 223 222 219 214 205 196 192 196 199 195 195 194 188 185 185 185 185 186 185 184 185 187 180 172 169 169 170 170 171 170 164 160 163 165 160 156 161 166 166 168 172 171 174 180 176 172 172 170 170 171 172 175 175 173 172 173 174 175 177 174 168 171 172 169 170 171 173 181 187 191 195 194 194 199 204 213 222
19 16 16 15 17 229 229 229 223 222 218 211 205 196 190 193 196 192 192 192 188 185 185 186 186 188 189 185 183 185 179 173 172 171 170 170 169 166 162 160 160 156 149 145 149 157 158 163 171 171 172 177 172 175 177 171 174 180 181 184 184 181 183 187 188 190 192 189 182 177 173 172 179 179 173 174 178 185 193 196 201 207 211 219 225
26 26 30 30 38 121 209 211 206 210 208 202 197 191 189 192 193 190 191 189 188 188 187 188 190 193 194 188 183 182 180 178 177 172 170 169 167 165 164 161 158 157 155 147 143 149 153 159 166 168 180 188 184 186 185 177 176 180 185 192 190 186 187 190 191 195 197 193 185 182 178 177 183 184 181 181 182 187 193 196 209 218 216 220 225
33 34 41 43 52 87 164 179 173 178 187 192 193 188 187 193 192 188 187 186 186 188 188 190 192 194 194 188 183 183 183 180 178 172 169 168 165 164 166 166 165 164 162 155 148 148 150 153 163 176 189 192 188 188 188 184 179 175 176 186 189 189 188 186 186 188 189 183 178 183 185 185 188 190 192 195 198 204 208 205 209 215 217 224 230
37 42 53 60 67 90 136 145 143 152 163 175 185 187 183 187 189 185 183 183 184 186 187 189 191 190 187 183 182 184 184 181 178 175 174 174 175 178 182 181 179 174 168 164 161 162 163 165 174 182 182 181 182 183 185 187 184 178 175 174 176 182 183 183 183 183 186 185 180 187 193 195 199 202 205 209 211 214 217 216 217 222 225 230 233
39 46 58 65 68 81 105 115 124 145 149 149 165 180 179 178 183 183 181 181 182 183 186 188 187 186 184 183 184 186 185 182 181 181 183 186 188 192 198 197 192 186 180 177 176 179 184 189 193 191 186 185 188 190 191 191 189 189 185 174 173 182 180 180 183 180 183 188 186 193 202 204 208 210 213 219 220 221 224 226 231 234 235 237 237
46 48 55 63 66 76 89 96 112 141 144 139 152 170 173 173 176 177 179 183 183 181 183 184 183 182 181 181 186 189 185 184 186 188 192 197 196 195 199 200 197 195 192 189 188 189 193 199 203 203 202 201 199 198 199 195 192 195 190 177 181 191 185 186 194 192 192 194 194 203 214 220 222 221 224 230 234 237 238 237 240 241 241 242 241
53 53 59 68 72 79 87 94 107 125 131 135 147 158 163 164 167 168 172 180 181 179 179 179 178 179 182 189 197 195 187 190 197 198 197 200 198 195 195 197 198 199 199 198 197 197 199 202 206 209 211 213 213 212 210 206 202 200 196 191 199 205 204 209 212 212 215 217 218 220 225 233 239 239 241 244 245 250 251 249 249 249 248 247 245
56 59 65 72 78 84 88 92 103 115 113 115 125 139 148 152 156 162 166 171 174 175 175 177 177 179 186 194 195 191 187 193 201 200 196 198 197 196 197 198 199 200 203 205 204 204 206 207 208 210 212 214 219 221 222 224 225 225 224 224 227 229 231 233 232 232 235 236 237 238 238 243 250 252 252 250 250 253 255 257 258 257 256 255 252
67 74 78 78 79 82 84 86 94 106 109 108 110 118 128 133 140 150 155 160 168 169 169 173 176 178 183 184 180 179 182 186 187 185 185 189 192 195 196 196 198 200 202 205 205 206 211 215 216 217 217 217 220 224 227 231 237 243 246 246 246 248 249 249 248 248 250 250 248 247 248 249 253 255 254 253 253 255 257 260 262 262 262 262 260
77 86 88 87 84 83 84 84 84 89 95 102 107 111 115 116 118 125 131 138 148 151 153 158 160 161 167 169 168 171 173 175 177 177 178 179 181 185 188 190 194 195 196 198 199 203 210 217 224 227 226 224 223 224 228 233 239 245 249 252 254 255 256 258 259 260 261 260 258 256 258 258 258 258 259 259 260 261 262 263 264 265 265 265 265
81 88 91 91 89 88 88 87 85 85 87 92 99 102 105 107 108 111 114 118 121 124 128 135 138 141 147 150 153 157 157 160 165 168 170 172 172 174 177 181 184 187 193 195 195 201 209 217 224 229 232 234 232 229 229 233 239 245 251 254 257 259 261 262 264 264 264 265 265 263 263 263 263 264 266 266 266 266 266 267 267 267 267 266 266
78 88 93 94 92 90 88 86 86 88 89 91 95 96 98 101 104 107 108 108 110 111 113 115 120 127 134 138 142 147 149 153 158 162 167 170 172 174 175 179 185 190 197 204 204 206 211 215 217 220 225 231 234 232 231 236 243 249 255 259 260 263 265 265 266 268 267 269 270 269 266 265 265 267 269 269 270 270 269 269 270 270 270 271 270
91 95 97 95 92 89 86 82 81 84 87 89 93 95 96 98 101 103 103 103 105 109 111 113 116 122 130 136 143 148 152 154 154 158 162 161 171 186 188 196 211 214 215 222 225 225 229 228 224 222 228 233 235 234 234 241 252 259 264 269 270 270 272 271 270 271 271 272 274 274 272 270 269 270 272 273 274 274 273 272 271 270 270 271 271
101 102 100 96 91 86 82 79 77 77 78 80 86 91 93 93 95 96 95 96 99 103 109 113 117 120 124 129 135 141 147 150 148 153 154 145 151 169 176 192 210 214 217 226 228 229 237 241 239 238 241 242 241 243 248 254 262 267 270 272 273 273 275 274 272 272 271 270 271 270 271 274 276 275 274 274 275 275 274 273 271 270 269 267 266
100 101 101 99 95 91 86 82 79 77 75 75 78 84 86 86 86 84 85 88 92 96 103 109 114 117 118 119 121 125 131 136 139 150 158 146 147 165 179 192 203 206 212 221 223 227 237 245 249 249 249 249 250 257 267 272 274 273 272 274 275 275 276 276 275 276 274 273 273 271 273 278 281 279 277 276 275 275 274 273 272 270 269 266 264
95 95 95 93 93 92 88 84 80 75 74 74 74 79 81 82 81 79 79 82 85 89 94 99 103 107 108 109 110 111 115 118 121 129 136 137 147 168 187 203 216 224 233 239 238 238 242 248 256 259 261 264 267 272 277 280 280 279 278 277 277 277 278 279 279 279 278 277 277 276 278 282 284 283 283 282 281 280 278 277 276 275 273 271 268
89 86 83 81 82 82 82 80 77 72 70 67 67 72 77 78 79 78 78 80 82 85 87 88 91 93 94 96 98 100 102 105 110 118 127 137 151 168 183 198 213 225 239 251 256 258 261 263 268 270 270 272 276 279 281 282 282 283 284 283 282 283 284 284 285 285 285 284 283 283 285 287 288 287 287 287 287 286 284 283 282 281 280 278 276
85 80 75 71 72 72 72 73 72 69 67 64 63 68 73 76 77 78 80 81 83 85 85 82 82 81 80 79 80 81 84 86 91 99 105 118 148 184 214 223 232 236 242 251 257 261 265 268 272 277 280 283 284 283 284 286 285 283 284 284 285 287 287 288 289 289 288 286 286 288 290 290 290 290 291 291 291 290 289 287 285 283 281 280 279
85 81 74 68 66 63 62 64 64 63 62 61 61 65 71 76 79 79 79 82 82 82 81 78 74 71 67 64 60 59 60 58 58 62 61 62 82 130 237 244 252 255 253 256 259 262 266 269 273 277 280 284 287 289 293 295 291 288 287 287 287 288 287 288 290 288 286 285 286 289 290 289 290 290 290 289 289 288 288 288 287 286 283 281 280
87 82 76 69 66 61 59 60 60 57 54 53 53 56 62 72 79 80 82 85 83 80 79 76 74 69 64 60 54 48 45 38 33 32 26 17 15 10 337 276 264 264 264 268 272 276 280 283 287 289 287 288 298 301 296 292 290 290 289 287 287 287 287 289 290 286 285 287 288 289 289 289 289 289 289 289 288 287 287 286 287 287 286 284 282
86 79 72 70 70 68 65 62 59 55 49 47 49 50 52 59 68 73 79 86 89 88 84 79 76 71 66 61 54 49 46 37 25 19 13 6 0 358 352 312 269 262 274 285 288 284 284 285 289 294 294 304 328 313 296 293 293 291 288 286 286 287 287 287 287 284 285 288 291 292 292 293 293 295 296 296 295 294 292 290 287 285 282 280 279
83 79 72 68 68 68 65 60 54 50 44 39 40 44 45 46 52 57 61 68 75 77 76 72 68 63 61 58 52 48 47 42 34 22 6 348 342 14 322 284 280 277 284 292 290 287 292 292 290 295 304 313 319 305 302 304 301 295 292 293 293 293 294 294 293 293 294 296 297 297 298 299 300 301 302 302 300 299 297 294 291 287 282 280 278
86 86 80 72 68 67 61 52 43 38 32 25 21 29 35 34 38 45 48 53 57 56 54 55 52 49 50 51 46 44 46 48 50 44 23 0 347 4 1 303 298 306 304 292 280 280 303 313 307 328 2 0 340 330 326 321 314 305 301 302 303 306 309 310 310 311 311 310 309 308 309 310 310 310 309 306 305 303 301 300 298 293 290 286 281
93 90 88 78 68 62 54 38 21 10 6 5 3 359 6 14 21 30 38 46 51 46 39 39 38 34 42 47 39 34 40 42 46 59 60 42 354 343 343 351 2 2 3 17 28 42 57 60 52 45 45 35 15 4 356 348 339 325 310 303 303 308 315 319 322 325 327 326 322 319 317 314 312 309 305 304 305 304 302 301 300 298 295 290 286